Regional Weather Roundup
Issued by NWS

Home | Current Version | Previous Version | Graphics & Text | Print | Product List | Glossary On
Versions: 1 2 3 4 5 6 7 8 9 10 11 12 13 14 15 16 17 18 19 20 21 22 23 24 25 26 27 28 29 30 31 32 33 34 35 36 37 38 39 40 41 42 43 44 45 46 47 48 49 50
000
ASUS43 KBIS 281510
RWRND

NORTH DAKOTA REGIONAL WEATHER ROUNDUP
NATIONAL WEATHER SERVICE BISMARCK ND
1000 AM CDT THU MAY 28 2015

NOTE: "FAIR" INDICATES FEW OR NO CLOUDS BELOW 12,000 FEET WITH NO
SIGNIFICANT WEATHER AND/OR OBSTRUCTIONS TO VISIBILITY.


NDZ001>003-009>011-017-281600-
NORTHWEST NORTH DAKOTA

CITY           SKY/WX    TMP DP  RH WIND       PRES   REMARKS
WILLISTON      MOSUNNY   63  57  81 SW6       29.87F
MINOT          CLOUDY    63  57  81 W10       29.85R
MINOT AFB      CLOUDY    64  64 100 W2        29.84S
$$

NDZ018>021-031>035-040>046-281600-
SOUTHWEST NORTH DAKOTA

CITY           SKY/WX    TMP DP  RH WIND       PRES   REMARKS
BISMARCK       CLOUDY    67  58  72 VRB3      29.88S
DICKINSON      SUNNY     63  56  78 W8        29.89R
GARRISON         N/A     62  58  86 SW10      29.85S
HETTINGER ARPT CLOUDY    59  56  89 NW8       29.93R
$$

NDZ004>008-012>016-024-026-027-054-281600-
NORTHEAST NORTH DAKOTA

CITY           SKY/WX    TMP DP  RH WIND       PRES   REMARKS
GRAND FORKS    MOSUNNY   64  59  83 SE10      29.88F
GRND FRKS AFB  MOSUNNY   64  59  84 E8        29.88F
DEVILS LAKE    PTSUNNY   64  55  72 SE9       29.87S
$$

NDZ022-023-025-028>030-036>039-047>053-281600-
SOUTHEAST NORTH DAKOTA

CITY           SKY/WX    TMP DP  RH WIND       PRES   REMARKS
FARGO          CLOUDY    64  59  83 SE10      29.89F
JAMESTOWN      MOSUNNY   68  60  75 S15G22    29.85F
$$



USA.gov is the U.S. government's official web portal to all federal, state and local government web resources and services.